Retour au catalogue

KUIPER-00121

ActifCommunicationsLEO
NORAD 65950·PAYLOAD·🇺🇸 United States

Lancé Oct 14, 2025 depuis Cape Canaveral Space Force Station

Loading…

Prochains Passages (prochaines 24 heures)

TLE

FraisSource: CelesTrak SupGP

Époque: Sep 14, 2026, 21:46 UTC

1 65950C 25228D   26257.90702546 -.00014770  00000+0 -19335-2 0  2579
2 65950  51.8985 236.3651 0000780  63.6983  36.3912 14.79944678    13

Suivez KUIPER-00121 en temps réel avec AllMySat

Download on the App Store